STARLINK-2569, 48277

Orbit data source: Space-Track

STARLINK-2569, 48277 is a payload satellite owned by SpaceX/Seattle (US) in LEO that was launched on Thu, 29 Apr 2021 UTC via an FALCON 9 launch vehicle from the Air Force Eastern Test Range (AFETR). Payload-class satellites include a variety of spacecraft equipped with specific instruments for various scientific and technological missions. These include communications satellites like Starlink; space stations such as the ISS; scientific satellites like the Hubble; Earth observation satellites from companies like Planet Labs, Umbra, and HawkEye 360; GPS; miniature CubeSats for education and research; and military/defense satellites.

Loading next visibility...
Identifier
48277, 2021-036B
Orbit
LEO
Country
Flag of USUS
Related business
Manufacturer
SpaceX/Seattle
Mission
Operational Commercial Communications
Bus & Motor
STARLINK, Unknown motor
Mass
260 kg wet, ~248 kg dry
Launch date (UTC)
2021-04-29 (4 years ago)
Launch vehicle
FALCON 9
Launch site
Air Force Eastern Test Range (AFETR)
Object type
Payload
Rocket body
Debris
Shape & HBR
Box + 1 Pan, 10.1 m
Radar Cross Section
13.562 m², Large (>1 m²)

Expand to show TLE details & history
Last TLE update: 6 hours ago

TLE from 6 hours ago
0 STARLINK-2569
1 48277U 21036B   25291.29455267  .00002306  00000-0  17365-3 0  9995
2 48277  53.0529 290.8581 0001436  89.8554 270.2600 15.06396821247832
Epoch: 2025-10-18T07:04Z
TLE epoch observation values (Epoch: 2025-10-18T07:04:09.350Z)
Latitude
0.00001°
Longitude
157.79152°
Altitude
548.096 km
Speed
7.589 km/s
True Right ascension
19h 23m 25s
True Declination
0° 00' 00"
Sunlit
Object was in daylight at epoch
Visualization orbit readout
Latitude
Unknown
Longitude
Unknown
Altitude
Unknown
Speed
Unknown
Apparent Right ascension
Unknown
Apparent Declination
Unknown
Sunlit
N/A
Visualization observer readout
Local Sidereal Time
07:41:43
Azimuth
Unknown
Elevation
Unknown
Doppler factor
Unknown
Orbital elements
Apogee altitude
548.487 km
Perigee altitude
546.498 km
Semi-major axis
6,925.629 km
Eccentricity
0.00014
Inclination
53.0529°
RAAN
290.8581°
Arg. of periapsis
89.8554°
True anomaly
270.24354°
Mean anomaly
270.26°
Eccentric anomaly
270.25177°
Mean motion
3.76577 °/min
Orbital period
95.6 mins
BSTAR
0.00017365
Loading maneuver chart data...
Computing Atmospheric mass density...
Loading historical data...
Loading historical data...
Loading historical data...
Loading historical data...
Loading historical data...
Loading historical data...
Loading historical data...

Documentation

Showing up to 5 results
|